Regional Weather Roundup
Issued by NWS

Home | Current Version | Previous Version | Graphics & Text | Print | Product List | Glossary On
Versions: 1 2 3 4 5 6 7 8 9 10 11 12 13 14 15 16 17 18 19 20 21 22 23 24 25 26 27 28 29 30 31 32 33 34 35 36 37 38 39 40 41 42 43 44 45 46 47 48 49 50
000
ASUS43 KFSD 240010
RWRSD

WEATHER ROUNDUP FOR SOUTH DAKOTA
NATIONAL WEATHER SERVICE SIOUX FALLS SD
700 PM CDT MON APR 23 2018

NOTE: "FAIR" INDICATES FEW OR NO CLOUDS BELOW 12,000 FEET WITH NO
SIGNIFICANT WEATHER AND/OR OBSTRUCTIONS TO VISIBILITY.


SDZ001>005-009-010-012>017-240100-
NORTHWEST AND NORTH CENTRAL SOUTH DAKOTA

CITY           SKY/WX    TMP DP  RH WIND       PRES   REMARKS
BUFFALO          N/A     47  35  63 N31G48    30.05
FAITH            N/A     64  42  44 E18G24    30.01S
MOBRIDGE       CLOUDY    68  41  37 SE10      30.04R
$$

SDZ012>016-024>037-041>051-057-063-072>074-240100-
SOUTHWEST AND SOUTH CENTRAL SOUTH DAKOTA

CITY           SKY/WX    TMP DP  RH WIND       PRES   REMARKS
RAPID CTY ARPT RAIN      50  44  80 W23G38    30.06R
PIERRE         MOSUNNY   68  39  34 SE14      30.02S
CUSTER         CLOUDY    42  38  85 W6        30.09S
PHILIP         PTSUNNY   70  39  32 SE16      29.98S
PINE RIDGE     CLOUDY    67  40  37 S13       30.00R
SPEARFISH      CLOUDY    41  39  93 W23G30    30.12R
WINNER         FAIR      68  38  33 SE13      30.04R
$$

SDZ004>011-016>023-039-040-240100-
NORTHEAST SOUTH DAKOTA

CITY           SKY/WX    TMP DP  RH WIND       PRES   REMARKS
ABERDEEN       MOSUNNY   65  41  41 SE6       30.08F
WATERTOWN      CLOUDY    65  37  35 NE7       30.10S
BROOKINGS      PTSUNNY   63  41  44 SE14      30.12S
SISSETON         N/A     66  43  43 E8        30.09S
$$

SDZ017-020-022-023-036>040-048>070-240100-
SOUTHEAST SOUTH DAKOTA

CITY           SKY/WX    TMP DP  RH WIND       PRES   REMARKS
SIOUX FALLS    MOSUNNY   66  37  34 E9        30.10S
HURON          CLOUDY    66  40  38 SE7       30.07F
CHAMBERLAIN    MOSUNNY   69  41  35 SE10      30.05S
MITCHELL       PTSUNNY   68  42  38 SE8       30.08S
YANKTON        SUNNY     69  35  28 SE3       30.08S
$$

ABBREVIATIONS USED IN REMARKS
   TC - TEMPERATURE IN CELSIUS
  WCI - WIND CHILL INDEX
   HX - HEAT INDEX
  VSB - VISIBILITY




USA.gov is the U.S. government's official web portal to all federal, state and local government web resources and services.